Weather Roundup
Issued by NWS Chicago, IL

Current Version | Previous Version | Text Only | Print | Product List | Glossary On
Versions: 1 2 3 4 5 6 7 8 9 10 11 12 13 14 15 16 17 18 19 20 21 22 23 24 25 26 27 28 29 30 31 32 33 34 35 36 37 38 39 40 41 42 43 44 45 46 47 48 49 50
000
NZUS59 KLOT 220110
HRRLOT

CHICAGO AREA WEATHER ROUNDUP
NATIONAL WEATHER SERVICE CHICAGO/ROMEOVILLE IL
700 PM CST SUN DEC 21 2014

NOTE: "FAIR" INDICATES FEW OR NO CLOUDS BELOW 12,000 FEET WITH NO
SIGNIFICANT WEATHER AND/OR OBSTRUCTIONS TO VISIBILITY.

* THESE STATIONS ARE NOT UNDER NWS QUALITY CONTROL. THEY ALSO MAY NOT
  REPORT WEATHER SUCH AS PRECIPITATION OR FOG.

ILZ005-006-012>014-019>023-220200-
NORTHEAST ILLINOIS

CITY           SKY/WX    TMP DP  RH WIND       PRES   REMARKS
OHARE          CLOUDY    35  29  78 S10       30.08S WCI  27
MIDWAY         CLOUDY    38  30  73 S8        30.09S
AURORA         CLOUDY    36  29  75 SE12      30.06F
LANSING*       CLOUDY    36  29  78 SE10      30.11S
JOLIET*        CLOUDY    35  30  82 SE6       30.08F WCI  30
WAUKEGAN       CLOUDY    35  28  75 SE10      30.07S WCI  27
DUPAGE AIRPORT CLOUDY    36  29  75 SE10      30.05F
WHEELING       CLOUDY    36  29  75 S10       30.09F
KANKAKEE*      CLOUDY    34  31  87 E7        30.09F WCI  28
MORRIS*        CLOUDY    36  32  85 SE8       30.06F
LEWIS AIRPORT* CLOUDY    35  30  82 SE7       30.07F WCI  29
NORTHERLY IS     N/A     36  30  79 SE8         N/A
$$

WIZ051-052-058>065-066-070>072-220200-
SOUTHEAST WISCONSIN

CITY           SKY/WX    TMP DP  RH WIND       PRES   REMARKS
MILWAUKEE      CLOUDY    36  28  73 S13       30.06S
KENOSHA*       CLOUDY    36  29  75 S12       30.06S
RACINE*        CLOUDY    36  30  79 S14       30.08S
BURLINGTON     CLOUDY    33  29  83 SE8       30.04S WCI  27
WAUKESHA       CLOUDY    34  28  80 SE12      30.04S WCI  25
WEST BEND      CLOUDY    34  30  86 SE8       30.03S WCI  27
$$

INZ001>003-010>013-019-020-220200-
NORTHWEST INDIANA

CITY           SKY/WX    TMP DP  RH WIND       PRES   REMARKS
GARY*          CLOUDY    37  27  65 SE12      30.11S
MICHIGAN CITY* NOT AVBL
RENSSELAER*    NOT AVBL
VALPARAISO     PTCLDY    31  26  82 SE7       30.11F WCI  24
$$

LMZ740>746-220200-
SOUTHERN LAKE MICHIGAN

STATION/POSITION TIME  SKY/WX   TEMP WIND        PRES    VSBY
                                AIR  DIR/SP/G
                 (UTC)          (F)  (DEG/KT/KT) (MB)    (MI)
HARRISON CRIB    0100            35  160/ 10/ 12   N/A
BURNHAM HARBOR   0100            36  140/  7/ 10   N/A
CALUMET HARBOR   0100            36  140/  9/ 12 1017.9F
BURNS HARBOR     NOT AVBL
MICHIGAN CITY    NOT AVBL
$$

ABBREVIATIONS USED IN REMARKS
   TC - TEMPERATURE IN CELSIUS
  WCI - WIND CHILL INDEX
   HX - HEAT INDEX
  VSB - VISIBILITY
$$


USA.gov is the U.S. government's official web portal to all federal, state and local government web resources and services.